This is the latest recevied weather packets stored in our database for station/object KF7U. If no packets are shown the sender has not sent any weather packets the latest 10 day(s).
| Time | Temp. | Humidity | Pressure | Rain* | Wind** | Luminosity | Snow |
|---|---|---|---|---|---|---|---|
| 1777759654 | 35.56° C | 15% | 1009.5 hPa | 0 mm | - | 930 W/m² | - |
| 1777759354 | 35.56° C | 15% | 1009.5 hPa | 0 mm | - | 953 W/m² | - |
| 1777759054 | 35° C | 14% | 1009.8 hPa | 0 mm | - | 993 W/m² | - |
| 1777758757 | 35° C | 15% | 1009.8 hPa | 0 mm | - | 996 W/m² | - |
| 1777758454 | 34.44° C | 15% | 1009.8 hPa | 0 mm | - | 984 W/m² | - |
| 1777758154 | 33.89° C | 15% | 1009.8 hPa | 0 mm | - | 977 W/m² | - |
| 1777757854 | 33.33° C | 16% | 1010.2 hPa | 0 mm | - | - | - |
| 1777757554 | 33.89° C | 15% | 1010.2 hPa | 0 mm | - | 360 W/m² | - |
| 1777757254 | 33.89° C | 15% | 1010.2 hPa | 0 mm | - | - | - |
| 1777756954 | 33.89° C | 15% | 1010.2 hPa | 0 mm | - | - | - |
| 1777756654 | 33.89° C | 15% | 1010.5 hPa | 0 mm | - | - | - |
| 1777756355 | 32.78° C | 17% | 1010.5 hPa | 0 mm | - | - | - |
| 1777756054 | 31.67° C | 17% | 1010.5 hPa | 0 mm | - | 461 W/m² | - |
| 1777755454 | 32.78° C | 17% | 1010.5 hPa | 0 mm | - | 293 W/m² | - |
| 1777755154 | 33.33° C | 17% | 1010.8 hPa | 0 mm | - | 276 W/m² | - |
| 1777754855 | 34.44° C | 17% | 1010.8 hPa | 0 mm | - | 315 W/m² | - |
| 1777754554 | 35° C | 15% | 1010.8 hPa | 0 mm | - | 468 W/m² | - |
| 1777754255 | 34.44° C | 16% | 1010.8 hPa | 0 mm | - | 1172 W/m² | - |
| 1777753954 | 33.89° C | 17% | 1010.8 hPa | 0 mm | - | 1147 W/m² | - |
| 1777753655 | 33.89° C | 17% | 1011.2 hPa | 0 mm | - | 1149 W/m² | - |
| 1777753355 | 33.89° C | 16% | 1011.2 hPa | 0 mm | - | 1115 W/m² | - |
| 1777753054 | 33.89° C | 17% | 1011.2 hPa | 0 mm | - | 1128 W/m² | - |
| 1777752755 | 33.89° C | 18% | 1011.5 hPa | 0 mm | - | 1155 W/m² | - |
| 1777752455 | 33.89° C | 17% | 1011.2 hPa | 0 mm | - | 771 W/m² | - |
| 1777752155 | 33.89° C | 17% | 1011.5 hPa | 0 mm | - | 1179 W/m² | - |
* Rain latest hour (hover to see other rain measurements)
** Current wind speed in m/s (hover to see current wind gust speed)